[[[{"header":{"parameterUnit":"kt","parameterCategory":2,"dx":1,"dy":1,"la1":30.253999710083008,"la2":30.299108505249023,"lo1":-89.0895004272461,"lo2":-89.04439544677734,"nx":28,"ny":28,"refTime":"2022-09-25T21:00:00:Z","depth":"0","parameterNumber":2,"parameterNumberName":"U-component_of_CURRENTS"},"data":[0.4345,0.4317,0.4351,0.4274,0.4291,0.4288,0.4336,0.4448,0.4669,0.5049,0.5444,0.5837,0.6611,0.7378,0.7705,0.7708,0.7038,0.6852,0.6532,0.7157,0.7157,0.7156,0.7003,0.7147,0.7146,0.5476,0.5464,0.5454,0.4448,0.4474,0.4485,0.4495,0.4486,0.4577,0.4684,0.4724,0.4883,0.5228,0.5523,0.6292,0.6968,0.7599,0.828,0.8166,0.7843,0.7929,0.7189,0.7067,0.7998,0.7893,0.8228,0.8228,0.8229,0.8229,0.8229,0.8229,0.461,0.4614,0.4651,0.4646,0.4687,0.4742,0.4773,0.4929,0.5094,0.5327,0.5662,0.6061,0.6829,0.7704,0.7957,0.8323,0.7932,0.8161,0.7975,0.7504,0.7243,0.8184,0.8666,0.8665,0.8664,0.8663,0.8663,0,0.4727,0.4759,0.479,0.48,0.4833,0.4896,0.5001,0.5049,0.53,0.5452,0.5737,0.6001,0.6682,0.7171,0.7753,0.8011,0.7609,0.8091,0.7753,0.7472,0.6923,0.6769,0.7575,0.8031,0.8026,0.8023,0.802,0.8018,0.4823,0.4838,0.492,0.4922,0.4951,0.5037,0.5093,0.5287,0.5372,0.5668,0.5714,0.6097,0.6368,0.6983,0.7335,0.7746,0.7342,0.797,0.7769,0.7443,0.7257,0.6747,0.6588,0.7967,0.7974,0.7979,0.7983,0,0.4864,0.4908,0.4948,0.5057,0.508,0.5137,0.5278,0.536,0.5525,0.5644,0.5694,0.5955,0.6305,0.6525,0.6871,0.6979,0.7102,0.737,0.7382,0.7429,0.7346,0.7146,0.6983,0.6831,0.7753,0.7759,0.7765,0,0.4917,0.4942,0.4999,0.5033,0.5099,0.5223,0.5333,0.5455,0.5603,0.5682,0.5804,0.5901,0.609,0.6314,0.6443,0.6788,0.6779,0.6879,0.6931,0.6927,0.6936,0.6735,0.6532,0.678,0.6776,0.6773,0.6771,0,0.4889,0.4968,0.5014,0.5052,0.5174,0.5243,0.5343,0.5493,0.5563,0.5728,0.5772,0.5918,0.5979,0.6163,0.6308,0.6214,0.6638,0.6514,0.6773,0.6784,0.6909,0.6922,0.6938,0.6766,0.6765,0.6764,0.6763,0,0.4896,0.491,0.4999,0.5073,0.5108,0.5204,0.5357,0.5473,0.5606,0.5654,0.572,0.5714,0.5834,0.5762,0.6033,0.5924,0.6055,0.6121,0.6139,0.6279,0.6228,0.662,0.689,0.6587,0.6308,0.6303,0.6299,0,0.4825,0.4888,0.4904,0.5022,0.5065,0.5148,0.5259,0.537,0.5441,0.554,0.5529,0.5568,0.5511,0.5522,0.563,0.5689,0.5857,0.5651,0.6011,0.6023,0.6138,0.6357,0.6411,0.6799,0.6237,0.6243,0.6248,0,0.4748,0.4775,0.478,0.4806,0.4912,0.4992,0.5119,0.5239,0.5307,0.538,0.5467,0.5455,0.5438,0.5452,0.5423,0.554,0.5756,0.5563,0.5569,0.574,0.6123,0.6255,0.631,0.5769,0.5775,0.578,0.6199,0,0.4731,0.4708,0.4734,0.4776,0.4857,0.4941,0.5032,0.5113,0.5149,0.5211,0.5251,0.525,0.5304,0.5282,0.5275,0.5392,0.5444,0.5399,0.5438,0.5519,0.5689,0.5728,0.526,0.5259,0.5258,0.5258,0,0,0.4642,0.4617,0.4594,0.4646,0.471,0.4773,0.4864,0.494,0.507,0.5104,0.5101,0.5152,0.5141,0.52,0.5229,0.521,0.5328,0.5277,0.5451,0.5472,0.5492,0.5659,0.5697,0.5257,0.5256,0.5256,0.5256,0,0.4625,0.4544,0.4543,0.4609,0.4699,0.477,0.4788,0.4914,0.497,0.5056,0.5046,0.5054,0.5117,0.5149,0.5162,0.5198,0.528,0.5197,0.5309,0.544,0.5462,0.5481,0.565,0.5684,0.5254,0.5254,0.5254,0,0.4581,0.4559,0.4543,0.4569,0.4649,0.4746,0.4764,0.4867,0.4955,0.495,0.5057,0.5033,0.5053,0.5111,0.5127,0.5151,0.5298,0.5185,0.5189,0.5218,0.5353,0.5377,0.5398,0.5134,0.5133,0.5133,0,0,0.4567,0.4516,0.4583,0.4576,0.4609,0.472,0.4781,0.4854,0.4933,0.497,0.5014,0.5046,0.5051,0.5094,0.5098,0.5151,0.5232,0.5171,0.5176,0.5181,0.5212,0.5348,0.537,0.5132,0.5132,0.5132,0,0,0.4611,0.4598,0.4591,0.4558,0.4666,0.4807,0.4864,0.4907,0.4981,0.498,0.5012,0.5023,0.504,0.5069,0.5051,0.5128,0.5105,0.5108,0.5131,0.5138,0.5144,0.5179,0.5065,0,0,0,0,0,0.4619,0.4582,0.4572,0.4575,0.4645,0.4778,0.4806,0.4918,0.4916,0.4972,0.5006,0.5004,0.5093,0.5077,0.5078,0.5103,0.5114,0.5118,0.512,0.5155,0.5163,0.5169,0,0,0,0,0,0,0.462,0.4615,0.4578,0.4688,0.4709,0.4776,0.4813,0.4845,0.4916,0.493,0.4998,0.5005,0.5042,0.5076,0.5077,0.5101,0.5064,0.5116,0.5118,0.5121,0.5158,0.5164,0.5169,0,0,0,0,0,0.4623,0.462,0.4669,0.4696,0.4713,0.4858,0.4814,0.4841,0.4903,0.4965,0.4979,0.4986,0.5041,0.5044,0.5076,0.5102,0.5064,0.5064,0.5117,0.5119,0.5121,0.5161,0,0,0,0,0,0,0.4625,0.4675,0.4679,0.4695,0.4702,0.4863,0.4877,0.4837,0.4934,0.4952,0.4951,0.4959,0.5039,0.5042,0.5044,0.5103,0.5064,0.5064,0.5064,0.5119,0.5121,0.5122,0,0,0,0,0,0,0.4679,0.4684,0.4688,0.4687,0.4704,0.4866,0.4878,0.4874,0.4929,0.4913,0.4926,0.4952,0.4992,0.5041,0.5042,0.5037,0.5063,0.5064,0.5064,0.5064,0.512,0.5121,0,0,0,0,0,0,0.4686,0.4692,0.4684,0.4697,0.4712,0.4897,0.4863,0.4899,0.5015,0.4903,0.5019,0.502,0.4985,0.4992,0.5041,0.5035,0.5037,0.5063,0.5063,0.5064,0.5064,0,0,0,0,0,0,0,0.4693,0.4589,0.4585,0.4705,0.4718,0.484,0.4844,0.4849,0.5015,0.5017,0.5018,0.502,0.5062,0.5062,0.5062,0.5033,0,0,0.5063,0.5063,0,0,0,0,0,0,0,0,0.4593,0.459,0.4586,0.4589,0.4592,0.484,0.4844,0.4848,0.5015,0.5017,0.5018,0.5019,0.5062,0.5062,0.5062,0,0,0,0,0,0,0,0,0,0,0,0,0,0,0,0.4586,0.4589,0,0.4841,0.4844,0.4847,0.5015,0.5016,0.5018,0.5018,0.5062,0.5062,0.5062,0,0,0,0,0,0,0,0,0,0,0,0,0,0,0,0,0,0,0,0,0,0,0,0,0,0,0,0,0,0,0,0,0,0,0,0,0,0,0,0,0,0,0,0,0,0,0,0,0,0,0,0,0,0,0,0,0,0,0,0,0,0,0,0,0,0,0,0,0]}],[{"header":{"parameterUnit":"kt","parameterCategory":2,"dx":1,"dy":1,"la1":30.253999710083008,"la2":30.299108505249023,"lo1":-89.0895004272461,"lo2":-89.04439544677734,"nx":28,"ny":28,"refTime":"2022-09-25T21:00:00:Z","depth":"0","parameterNumber":3,"parameterNumberName":"V-component_of_CURRENTS"},"data":[0.0414,0.0542,0.061,0.0875,0.1007,0.128,0.144,0.1729,0.2021,0.2565,0.2915,0.3101,0.2634,0.0577,-0.0853,-0.1282,-0.176,-0.1855,-0.213,-0.1779,-0.1758,-0.1738,-0.1784,-0.1961,-0.1963,-0.2524,-0.2531,-0.2536,0.0352,0.0437,0.0562,0.0732,0.0884,0.0934,0.116,0.1345,0.1621,0.1929,0.2125,0.2224,0.1581,0.0867,-0.0163,-0.0828,-0.1107,-0.121,-0.1352,-0.1422,-0.0848,-0.0852,-0.0832,-0.0832,-0.0831,-0.0831,-0.0831,-0.0831,0.0257,0.0334,0.0438,0.0576,0.07,0.0867,0.1006,0.1138,0.1316,0.156,0.1515,0.1722,0.129,0.0682,0.0177,-0.0569,-0.0658,-0.0798,-0.102,-0.1099,-0.1211,-0.0535,-0.052,-0.0521,-0.0523,-0.0524,-0.0524,0,0.0195,0.0226,0.0306,0.046,0.0564,0.0684,0.0792,0.088,0.0924,0.1026,0.1148,0.116,0.0861,0.0623,0.0148,-0.0165,-0.0737,-0.057,-0.0835,-0.1048,-0.1107,-0.1266,-0.0676,-0.059,-0.0592,-0.0593,-0.0594,-0.0594,0.0087,0.0161,0.0274,0.0348,0.039,0.0499,0.0578,0.0591,0.0655,0.0713,0.0771,0.0692,0.0683,0.0336,-0.0059,-0.0398,-0.0705,-0.0595,-0.0733,-0.0929,-0.121,-0.1315,-0.1399,-0.0613,-0.0611,-0.0609,-0.0607,0,0.0029,0.0073,0.0174,0.0258,0.0299,0.0374,0.0436,0.0501,0.0492,0.0572,0.0568,0.0473,0.0348,0.0092,-0.0197,-0.0425,-0.0771,-0.0742,-0.0579,-0.0634,-0.099,-0.1191,-0.1334,-0.1436,-0.0851,-0.085,-0.085,0,-0.0058,0.0017,0.0082,0.0132,0.0252,0.0218,0.0314,0.0298,0.031,0.0378,0.023,0.026,-0.0024,-0.0135,-0.0382,-0.0584,-0.0583,-0.0845,-0.092,-0.084,-0.0834,-0.109,-0.1297,-0.0924,-0.0924,-0.0924,-0.0924,0,-0.0158,-0.009,0.0009,0.002,0.0044,0.0085,0.0089,0.0079,0.0109,0.0086,0.0099,-0.0003,-0.0059,-0.0249,-0.0495,-0.0563,-0.0667,-0.0822,-0.0935,-0.0935,-0.0906,-0.0905,-0.1014,-0.0924,-0.0924,-0.0924,-0.0925,0,-0.027,-0.0224,-0.0116,-0.0094,-0.0082,-0.0051,-0.0023,-0.0009,-0.0031,-0.0056,-0.0104,-0.0219,-0.0282,-0.0432,-0.0601,-0.0601,-0.0761,-0.0889,-0.0895,-0.0931,-0.1077,-0.0935,-0.0838,-0.1077,-0.1,-0.1001,-0.1001,0,-0.0364,-0.0281,-0.0332,-0.0255,-0.022,-0.0297,-0.0259,-0.0276,-0.0313,-0.0301,-0.0411,-0.0458,-0.0593,-0.0647,-0.0697,-0.0885,-0.0901,-0.0908,-0.1097,-0.1099,-0.1054,-0.0977,-0.088,-0.0852,-0.1008,-0.1007,-0.1007,0,-0.0464,-0.0482,-0.0472,-0.0458,-0.0508,-0.0495,-0.0473,-0.0473,-0.0441,-0.0512,-0.0472,-0.0617,-0.0698,-0.0759,-0.0891,-0.0928,-0.0918,-0.1043,-0.1051,-0.0988,-0.1003,-0.0989,-0.0984,-0.1034,-0.1033,-0.1032,-0.1012,0,-0.0591,-0.0577,-0.0555,-0.0581,-0.059,-0.0569,-0.062,-0.0629,-0.0672,-0.0707,-0.075,-0.0903,-0.0984,-0.103,-0.1126,-0.1121,-0.1155,-0.1262,-0.1268,-0.1225,-0.1228,-0.1223,-0.1329,-0.1332,-0.1335,-0.1337,0,0,-0.069,-0.0675,-0.0753,-0.0736,-0.0737,-0.0833,-0.0793,-0.082,-0.0897,-0.09,-0.0957,-0.1107,-0.1204,-0.1238,-0.1247,-0.1321,-0.1351,-0.1241,-0.1266,-0.1258,-0.125,-0.1248,-0.1241,-0.1341,-0.1342,-0.1343,-0.1344,0,-0.0752,-0.0787,-0.0765,-0.079,-0.0833,-0.0875,-0.0867,-0.0925,-0.0946,-0.098,-0.1104,-0.1181,-0.1261,-0.133,-0.1376,-0.1359,-0.1386,-0.1383,-0.1222,-0.1288,-0.1275,-0.1265,-0.126,-0.1251,-0.135,-0.135,-0.135,0,-0.0847,-0.0883,-0.0882,-0.0915,-0.0948,-0.0939,-0.102,-0.1025,-0.1013,-0.1164,-0.1172,-0.1282,-0.1392,-0.1422,-0.144,-0.1448,-0.1415,-0.1438,-0.1428,-0.1374,-0.1444,-0.1431,-0.1419,-0.1557,-0.1557,-0.1556,0,0,-0.0896,-0.0902,-0.0955,-0.093,-0.0941,-0.1008,-0.1021,-0.1063,-0.1131,-0.1163,-0.1225,-0.1309,-0.1384,-0.14,-0.1478,-0.148,-0.1511,-0.1453,-0.1444,-0.1435,-0.1376,-0.1443,-0.1431,-0.1555,-0.1555,-0.1555,0,0,-0.0917,-0.0976,-0.1014,-0.0983,-0.1019,-0.1082,-0.1074,-0.1119,-0.1191,-0.1207,-0.1298,-0.1321,-0.1368,-0.1418,-0.14,-0.1434,-0.149,-0.1494,-0.135,-0.134,-0.1331,-0.1239,-0.1427,0,0,0,0,0,-0.1011,-0.0967,-0.1,-0.1003,-0.1049,-0.1065,-0.1076,-0.1137,-0.1169,-0.1165,-0.1267,-0.1277,-0.1445,-0.143,-0.1441,-0.1377,-0.1541,-0.1544,-0.1546,-0.1368,-0.1356,-0.1346,0,0,0,0,0,0,-0.1012,-0.1014,-0.1002,-0.1057,-0.1068,-0.1067,-0.1136,-0.1154,-0.1171,-0.1181,-0.1264,-0.128,-0.1342,-0.1425,-0.1435,-0.1372,-0.1424,-0.1542,-0.1544,-0.1546,-0.1364,-0.1354,-0.1345,0,0,0,0,0,-0.1014,-0.1015,-0.1065,-0.106,-0.1069,-0.114,-0.1138,-0.1153,-0.1174,-0.1255,-0.1272,-0.1215,-0.134,-0.1353,-0.1431,-0.1366,-0.1417,-0.1421,-0.1543,-0.1545,-0.1547,-0.1359,0,0,0,0,0,0,-0.1015,-0.1046,-0.1069,-0.1075,-0.1069,-0.1143,-0.1154,-0.1152,-0.125,-0.1265,-0.1211,-0.1217,-0.1338,-0.1349,-0.1359,-0.136,-0.1412,-0.1416,-0.1418,-0.1545,-0.1546,-0.1547,0,0,0,0,0,0,-0.1045,-0.105,-0.1073,-0.1081,-0.1089,-0.1144,-0.1154,-0.1185,-0.125,-0.1202,-0.1209,-0.1212,-0.1321,-0.1345,-0.1354,-0.1402,-0.1408,-0.1411,-0.1414,-0.1415,-0.1546,-0.1547,0,0,0,0,0,0,-0.1049,-0.1054,-0.108,-0.1087,-0.1094,-0.1175,-0.1176,-0.1221,-0.1249,-0.1197,-0.1253,-0.1255,-0.1316,-0.1326,-0.135,-0.1394,-0.14,-0.1408,-0.141,-0.1412,-0.1413,0,0,0,0,0,0,0,-0.1052,-0.0997,-0.1024,-0.1091,-0.1098,-0.1133,-0.1135,-0.1138,-0.1249,-0.1251,-0.1252,-0.1254,-0.1388,-0.1392,-0.1395,-0.1387,0,0,-0.1407,-0.1409,0,0,0,0,0,0,0,0,-0.0997,-0.0997,-0.1024,-0.1025,-0.1026,-0.1133,-0.1135,-0.1137,-0.1249,-0.1251,-0.1252,-0.1253,-0.1389,-0.1392,-0.1395,0,0,0,0,0,0,0,0,0,0,0,0,0,0,0,-0.1024,-0.1025,0,-0.1133,-0.1135,-0.1137,-0.125,-0.1251,-0.1252,-0.1253,-0.139,-0.1392,-0.1395,0,0,0,0,0,0,0,0,0,0,0,0,0,0,0,0,0,0,0,0,0,0,0,0,0,0,0,0,0,0,0,0,0,0,0,0,0,0,0,0,0,0,0,0,0,0,0,0,0,0,0,0,0,0,0,0,0,0,0,0,0,0,0,0,0,0,0,0,0]}]],[[{"header":{"parameterUnit":"kt","parameterCategory":2,"dx":1,"dy":1,"la1":30.253999710083008,"la2":30.299108505249023,"lo1":-89.0895004272461,"lo2":-89.04439544677734,"nx":28,"ny":28,"refTime":"2022-09-25T21:00:00:Z","depth":"2","parameterNumber":2,"parameterNumberName":"U-component_of_CURRENTS"},"data":[0.0374,0.0476,0.0562,0.0828,0.1049,0.1293,0.1461,0.1628,0.1801,0.1978,0.2076,0.2193,0.2419,0.2044,0.2053,0.2077,0.2146,0.1961,0.2964,0.239,0.2426,0.2517,0.2174,0,0,0,0,0,0.0402,0.0483,0.0651,0.0927,0.11,0.1311,0.1595,0.1686,0.1998,0.2298,0.2631,0.2409,0.2532,0.2761,0.2629,0.272,0.2411,0.2745,0.2246,0.2284,0.2319,0.2074,0.194,0.194,0.1939,0.1939,0,0,0.0441,0.0499,0.0663,0.0946,0.116,0.1399,0.1534,0.1775,0.2059,0.2436,0.2764,0.3068,0.3097,0.3275,0.3373,0.3384,0.3522,0.3304,0.3297,0.33,0.3123,0.3012,0.3256,0.3263,0.3269,0.3275,0.3279,0,0.0482,0.0583,0.0689,0.0985,0.1189,0.1385,0.1617,0.1753,0.2043,0.2336,0.279,0.3102,0.3526,0.3554,0.3853,0.3808,0.3596,0.3614,0.4187,0.2664,0.2529,0.247,0.245,0.2716,0.272,0.2723,0.2726,0.2727,0.0485,0.0587,0.086,0.1001,0.1129,0.135,0.1504,0.1722,0.1879,0.2356,0.2509,0.3002,0.3323,0.3834,0.3783,0.3981,0.4063,0.3689,0.3308,0.3653,0.3609,0.3554,0.3502,0.2773,0.2767,0.2762,0.2758,0,0.0457,0.0612,0.0794,0.1027,0.1137,0.1282,0.1529,0.1676,0.1923,0.2218,0.2333,0.2672,0.3059,0.3221,0.3503,0.3462,0.367,0.3757,0.3131,0.3072,0.3486,0.3442,0.4013,0.4022,0.4029,0.4035,0.404,0,0.0446,0.0593,0.0796,0.0895,0.1113,0.1221,0.1453,0.1603,0.1841,0.2054,0.2215,0.2448,0.2577,0.2835,0.2872,0.3165,0.3198,0.3152,0.3169,0.2613,0.2571,0.2736,0.269,0.3092,0.3089,0.3086,0.3083,0,0.0354,0.0585,0.0753,0.0834,0.1034,0.1156,0.1255,0.1477,0.1613,0.1901,0.2052,0.2268,0.2425,0.256,0.2684,0.2533,0.3014,0.2798,0.2994,0.2999,0.2577,0.2534,0.3079,0.3079,0.3078,0.3076,0.3075,0,0.0331,0.0468,0.0655,0.0856,0.0918,0.101,0.1268,0.1361,0.1591,0.1685,0.1858,0.1925,0.2138,0.201,0.2314,0.2173,0.2265,0.2306,0.2321,0.2415,0.2267,0.2063,0.2322,0.2415,0.2408,0.2402,0.2397,0,0.0212,0.0414,0.0521,0.0698,0.0809,0.0911,0.1023,0.1144,0.1248,0.1423,0.1494,0.1645,0.1556,0.1642,0.1748,0.1842,0.2001,0.1766,0.2059,0.207,0.2128,0.2476,0.1904,0.2237,0.232,0.2328,0.2334,0,0.0141,0.0375,0.0429,0.0553,0.0712,0.0738,0.086,0.099,0.1123,0.117,0.1347,0.1402,0.146,0.1483,0.148,0.1588,0.1869,0.1544,0.1548,0.169,0.2248,0.2353,0.2414,0.1842,0.1851,0.1858,0.2273,0,0.0126,0.0328,0.0365,0.0582,0.0622,0.0681,0.0733,0.0824,0.0872,0.0902,0.1076,0.1081,0.1185,0.1182,0.1141,0.137,0.1369,0.1294,0.1211,0.1398,0.155,0.1599,0.0988,0.0985,0.0983,0.0981,0,0,0.0051,0.0291,0.0386,0.0489,0.053,0.0553,0.0622,0.0646,0.0677,0.0754,0.0703,0.0859,0.0853,0.0989,0.1024,0.1015,0.1108,0.099,0.1283,0.1316,0.1348,0.1503,0.1552,0.0977,0.0976,0.0975,0.0974,0,0.0059,0.0296,0.0398,0.0454,0.0511,0.0497,0.0539,0.0535,0.0569,0.0651,0.0637,0.073,0.0761,0.0783,0.0791,0.0969,0.0972,0.097,0.1103,0.1257,0.1293,0.1325,0.1485,0.1531,0.0969,0.0969,0.0969,0,0.0061,0.0176,0.0247,0.0413,0.0418,0.0451,0.0393,0.0393,0.0435,0.0383,0.0486,0.0506,0.0503,0.0583,0.0634,0.0581,0.086,0.0712,0.0726,0.077,0.0926,0.0967,0.1004,0.053,0.0529,0.0528,0,0,0.0066,0.0221,0.0271,0.0404,0.0427,0.04,0.0383,0.0363,0.0355,0.0376,0.0389,0.0417,0.0453,0.0483,0.0507,0.0604,0.0668,0.0659,0.068,0.0697,0.075,0.0909,0.0949,0.0522,0.0522,0.0522,0,0,-0.0026,0.0102,0.0209,0.0372,0.0376,0.0263,0.0258,0.0262,0.031,0.033,0.0288,0.029,0.0406,0.0388,0.0323,0.0467,0.0382,0.0397,0.0465,0.0491,0.0511,0.0561,0.0202,0,0,0,0,0,-0.0017,0.0099,0.0201,0.0229,0.0329,0.0278,0.0266,0.0195,0.0208,0.0249,0.0268,0.0214,0.0329,0.0269,0.0278,0.0349,0.0454,0.0466,0.0478,0.0591,0.0618,0.0641,0,0,0,0,0,0,-0.0007,0.0044,0.0186,0.0114,0.0126,0.0277,0.0194,0.0178,0.0201,0.0198,0.0211,0.0211,0.0149,0.0261,0.027,0.0338,0.0199,0.0459,0.0469,0.0478,0.06,0.0622,0.0641,0,0,0,0,0,-0.0,0.0039,0.0285,0.0102,0.0114,0.0025,0.0195,0.0181,0.024,0.0143,0.0144,0.0192,0.015,0.0159,0.0266,0.0335,0.0192,0.0196,0.0466,0.0474,0.0481,0.0611,0,0,0,0,0,0,0.0004,0.0004,0.0278,0.0266,0.0089,0.0014,0.003,0.0184,0.0189,0.0182,0.0113,0.0109,0.015,0.0157,0.0165,0.0337,0.0186,0.019,0.0192,0.0472,0.0478,0.0484,0,0,0,0,0,0,-0.0023,0.0001,0.0273,0.0265,0.0253,0.0003,0.0018,0.0063,0.0195,0.0165,0.0156,0.0112,0.0164,0.0157,0.0162,0.0227,0.0182,0.0186,0.0188,0.019,0.0477,0.0482,0,0,0,0,0,0,-0.002,-0.0001,0.0269,0.026,0.0249,0.0131,0.0039,0.0182,0.0098,0.0172,0.0094,0.0093,0.0165,0.0169,0.016,0.0223,0.0226,0.0182,0.0185,0.0187,0.0188,0,0,0,0,0,0,0,-0.0018,-0.0054,0.0323,0.0256,0.0247,0.0155,0.0154,0.0154,0.0097,0.0096,0.0095,0.0094,0.0162,0.0166,0.017,0.022,0,0,0.0182,0.0184,0,0,0,0,0,0,0,0,-0.0072,-0.0059,0.0323,0.0319,0.0315,0.0155,0.0154,0.0154,0.0097,0.0096,0.0095,0.0094,0.0163,0.0166,0.0169,0,0,0,0,0,0,0,0,0,0,0,0,0,0,0,0.0322,0.0319,0,0.0155,0.0154,0.0154,0.0097,0.0096,0.0095,0.0095,0.0164,0.0167,0.0169,0,0,0,0,0,0,0,0,0,0,0,0,0,0,0,0,0,0,0,0,0,0,0,0,0,0,0,0,0,0,0,0,0,0,0,0,0,0,0,0,0,0,0,0,0,0,0,0,0,0,0,0,0,0,0,0,0,0,0,0,0,0,0,0,0,0,0,0,0]}],[{"header":{"parameterUnit":"kt","parameterCategory":2,"dx":1,"dy":1,"la1":30.253999710083008,"la2":30.299108505249023,"lo1":-89.0895004272461,"lo2":-89.04439544677734,"nx":28,"ny":28,"refTime":"2022-09-25T21:00:00:Z","depth":"2","parameterNumber":3,"parameterNumberName":"V-component_of_CURRENTS"},"data":[0.1166,0.1306,0.1405,0.1721,0.1827,0.2147,0.2331,0.2605,0.2588,0.2435,0.2099,0.1839,0.0906,0.0259,-0.0252,-0.0555,-0.0561,-0.0576,-0.0354,-0.0382,-0.0369,-0.0759,-0.0617,0,0,0,0,0,0.1097,0.1188,0.1286,0.1437,0.1619,0.1609,0.1906,0.2124,0.2421,0.2313,0.2397,0.155,0.1089,0.0366,-0.0311,-0.0631,-0.0669,-0.0757,-0.0837,-0.0829,-0.0823,-0.0737,-0.0896,-0.0896,-0.0897,-0.0897,0,0,0.1004,0.1066,0.1103,0.1181,0.1271,0.1493,0.1686,0.1845,0.206,0.2169,0.2083,0.1922,0.1187,0.0434,0.0029,-0.0432,-0.0384,-0.0636,-0.0637,-0.0636,-0.054,-0.0459,-0.0645,-0.0644,-0.0643,-0.0642,-0.0641,0,0.0965,0.0925,0.0972,0.1022,0.1089,0.124,0.137,0.1467,0.1542,0.16,0.1697,0.1683,0.1204,0.0755,0.0181,-0.0067,-0.0486,-0.0557,-0.0456,-0.0589,-0.0515,-0.05,-0.0474,-0.0727,-0.0726,-0.0725,-0.0725,-0.0725,0.09,0.0894,0.0901,0.0927,0.0936,0.0996,0.1097,0.1147,0.125,0.1239,0.1297,0.1075,0.1068,0.0594,0.0162,-0.0241,-0.0287,-0.0541,-0.0514,-0.033,-0.0318,-0.0294,-0.0271,-0.0717,-0.0718,-0.0719,-0.072,0,0.0877,0.0847,0.0873,0.0894,0.0911,0.094,0.1061,0.1135,0.1083,0.1135,0.1092,0.0965,0.0733,0.0426,0.0072,-0.0083,-0.033,-0.0391,-0.041,-0.0419,-0.0291,-0.0266,-0.052,-0.0519,-0.0518,-0.0517,-0.0516,0,0.0854,0.0864,0.0852,0.0861,0.0914,0.0938,0.0997,0.1004,0.1005,0.106,0.0888,0.0885,0.0541,0.0359,0.0144,-0.009,-0.017,-0.0218,-0.0232,-0.0284,-0.0275,-0.0176,-0.0151,-0.0369,-0.0367,-0.0365,-0.0363,0,0.0839,0.0857,0.087,0.0877,0.0941,0.0939,0.099,0.0985,0.1022,0.0909,0.0897,0.0694,0.0601,0.0365,0.017,0.0187,-0.0125,-0.0113,-0.0163,-0.0156,-0.0273,-0.0266,-0.0361,-0.0361,-0.036,-0.0359,-0.0359,0,0.0843,0.0837,0.0857,0.0917,0.092,0.0959,0.0974,0.1013,0.0959,0.0923,0.0813,0.0761,0.0585,0.0553,0.0267,0.0357,0.0214,0.0127,0.0116,0.0206,0.027,-0.0028,-0.0169,0.0033,0.0036,0.004,0.0043,0,0.085,0.0847,0.0838,0.0882,0.0893,0.0895,0.0925,0.0937,0.0921,0.0888,0.0784,0.0762,0.0708,0.0672,0.0538,0.046,0.0312,0.0456,0.0225,0.0217,0.0288,0.0187,0.0109,-0.011,0.0088,0.0084,0.008,0,0.0838,0.0813,0.079,0.0771,0.0778,0.0858,0.0854,0.089,0.0876,0.0834,0.08,0.0774,0.0705,0.071,0.0692,0.0573,0.039,0.0557,0.0552,0.0429,0.0132,0.0238,0.0218,0.0374,0.0369,0.0364,0.0116,0,0.0866,0.0782,0.0796,0.0728,0.0775,0.0831,0.0871,0.0852,0.0823,0.0852,0.0797,0.0799,0.078,0.0764,0.0796,0.0674,0.0668,0.0687,0.0646,0.0599,0.0506,0.0478,0.0827,0.0828,0.0829,0.0829,0,0,0.0826,0.075,0.0706,0.0696,0.0736,0.0757,0.0799,0.0829,0.0906,0.0886,0.0868,0.0864,0.0843,0.0832,0.0842,0.0854,0.0789,0.0782,0.066,0.0641,0.0624,0.053,0.0502,0.0831,0.0831,0.0831,0.0831,0,0.0853,0.07,0.066,0.0689,0.0722,0.0801,0.0782,0.0882,0.0871,0.0894,0.0908,0.0862,0.0874,0.0881,0.089,0.0874,0.0776,0.0863,0.0784,0.0671,0.0651,0.0634,0.0538,0.0512,0.0833,0.0833,0.0833,0,0.0809,0.0773,0.0742,0.0724,0.0771,0.0834,0.0858,0.093,0.0962,0.0967,0.0941,0.0944,0.0969,0.0962,0.093,0.0917,0.0759,0.0842,0.084,0.081,0.0691,0.0671,0.0653,0.0869,0.0869,0.0869,0,0,0.0802,0.0725,0.0785,0.0743,0.0754,0.0841,0.0889,0.093,0.0999,0.0994,0.0972,0.0955,0.0972,0.0928,0.095,0.0898,0.0837,0.0843,0.0842,0.084,0.0809,0.0692,0.0674,0.0868,0.0868,0.0868,0,0,0.0887,0.0878,0.0792,0.0739,0.0816,0.1013,0.1034,0.1043,0.1049,0.1005,0.1008,0.1,0.0954,0.0942,0.0939,0.0886,0.0901,0.09,0.0864,0.0862,0.0861,0.0825,0.0909,0,0,0,0,0,0.0923,0.0877,0.0793,0.0792,0.0843,0.1008,0.1033,0.1099,0.1043,0.1043,0.1044,0.0984,0.0979,0.0978,0.0964,0.0889,0.0857,0.0859,0.0861,0.0807,0.0805,0.0803,0,0,0,0,0,0,0.0924,0.0914,0.0804,0.097,0.0989,0.1007,0.1027,0.1045,0.1045,0.104,0.1001,0.0988,0.1014,0.0979,0.0968,0.0896,0.0912,0.0858,0.086,0.0861,0.0806,0.0805,0.0803,0,0,0,0,0,0.0926,0.0919,0.0926,0.0979,0.0993,0.1098,0.1022,0.1037,0.1,0.1057,0.1046,0.1036,0.1018,0.1001,0.0972,0.0901,0.0919,0.0915,0.0859,0.086,0.0861,0.0805,0,0,0,0,0,0,0.0929,0.0958,0.0936,0.0953,0.0946,0.1099,0.1101,0.103,0.101,0.1011,0.1098,0.1096,0.1021,0.1007,0.0996,0.0904,0.0925,0.0921,0.0918,0.086,0.0861,0.0862,0,0,0,0,0,0,0.0966,0.0967,0.0944,0.0897,0.0908,0.1099,0.1101,0.1069,0.1,0.1045,0.105,0.1096,0.0965,0.1012,0.1003,0.0962,0.0929,0.0925,0.0923,0.0921,0.0861,0.0862,0,0,0,0,0,0,0.0973,0.0974,0.0892,0.0901,0.091,0.1095,0.1068,0.1054,0.1132,0.1037,0.1124,0.1121,0.0965,0.096,0.1008,0.0972,0.0964,0.0929,0.0926,0.0925,0.0923,0,0,0,0,0,0,0,0.0978,0.0889,0.085,0.0904,0.0912,0.1112,0.1115,0.1118,0.1131,0.1128,0.1125,0.1122,0.095,0.0946,0.0942,0.098,0,0,0.0929,0.0927,0,0,0,0,0,0,0,0,0.0896,0.0891,0.0851,0.0855,0.0859,0.1113,0.1115,0.1118,0.1131,0.1128,0.1126,0.1123,0.0949,0.0945,0.0942,0,0,0,0,0,0,0,0,0,0,0,0,0,0,0,0.0851,0.0855,0,0.1113,0.1115,0.1117,0.113,0.1128,0.1126,0.1124,0.0948,0.0945,0.0942,0,0,0,0,0,0,0,0,0,0,0,0,0,0,0,0,0,0,0,0,0,0,0,0,0,0,0,0,0,0,0,0,0,0,0,0,0,0,0,0,0,0,0,0,0,0,0,0,0,0,0,0,0,0,0,0,0,0,0,0,0,0,0,0,0,0,0,0,0]}]],[[{"header":{"parameterUnit":"kt","parameterCategory":2,"dx":1,"dy":1,"la1":30.253999710083008,"la2":30.299108505249023,"lo1":-89.0895004272461,"lo2":-89.04439544677734,"nx":28,"ny":28,"refTime":"2022-09-25T21:00:00:Z","depth":"4","parameterNumber":2,"parameterNumberName":"U-component_of_CURRENTS"},"data":[0.0352,0.0414,0.0466,0.056,0.062,0.071,0.0784,0.0828,0.0858,0.0967,0.0971,0.1074,0.1081,0.1102,0.1116,0.1127,0.0966,0.1211,0.1211,0.0923,0.0907,0.0892,0.0726,0,0,0,0,0,0.0385,0.0417,0.0499,0.0595,0.0715,0.0765,0.0879,0.0906,0.1008,0.1046,0.1073,0.1107,0.1137,0.1138,0.1142,0.1167,0.103,0.1172,0.0924,0.0913,0.0895,0.0739,0,0,0,0,0,0,0.0431,0.046,0.0544,0.064,0.0755,0.0817,0.085,0.0924,0.097,0.1064,0.1096,0.1115,0.1141,0.1138,0.116,0.1161,0.1045,0.0967,0.0947,0.093,0.082,0.0907,0.1181,0,0,0,0,0,0.0465,0.0515,0.0572,0.0682,0.0758,0.083,0.0895,0.0938,0.0972,0.1017,0.1064,0.106,0.1127,0.1039,0.112,0.1044,0.0856,0.0949,0.0933,0.0625,0.0684,0.0667,0.0643,0.0826,0.0823,0.0822,0.0821,0,0.0506,0.0537,0.066,0.0711,0.0759,0.082,0.0864,0.089,0.0905,0.0964,0.0974,0.1003,0.0944,0.1014,0.0897,0.0885,0.0823,0.0905,0.0577,0.0653,0.0644,0.0624,0.0605,0.0806,0.0808,0.0809,0.081,0,0.0522,0.0583,0.0651,0.074,0.0778,0.0804,0.0884,0.089,0.0873,0.0884,0.085,0.0787,0.0766,0.0723,0.0648,0.0602,0.059,0.0636,0.0558,0.0553,0.0587,0.0573,0.0782,0.0788,0.0792,0.0796,0.0799,0,0.0556,0.0605,0.0691,0.0718,0.0785,0.0805,0.0838,0.0812,0.08,0.0808,0.0664,0.0644,0.0456,0.0476,0.0363,0.0403,0.0371,0.0314,0.0327,0.0095,0.0086,0.0141,0.0136,0.0162,0.016,0.0158,0.0156,0,0.0542,0.0631,0.0688,0.0712,0.0774,0.0796,0.081,0.0781,0.078,0.0672,0.0648,0.0507,0.0436,0.0343,0.0247,0.0143,0.0263,0.0118,0.0247,0.026,0.0126,0.0125,0.0153,0.0153,0.0152,0.0151,0.015,0,0.0551,0.0599,0.0661,0.0726,0.0744,0.0772,0.0786,0.0773,0.0716,0.0644,0.0524,0.0416,0.0296,0.0167,0.0101,0.0036,0.0011,-0.0022,-0.0013,0.012,0.0096,0.0147,0.0127,0.0125,0.0123,0.0121,0.0119,0,0.0528,0.0593,0.0618,0.0679,0.0709,0.071,0.0718,0.0695,0.0627,0.0571,0.0434,0.0324,0.0182,0.0065,-0.0005,-0.0095,-0.0078,-0.0166,-0.0027,-0.0017,0.0088,0.009,-0.0211,0.0093,0.0097,0.0099,0.0101,0,0.0497,0.0557,0.0571,0.0604,0.0637,0.0648,0.0647,0.0636,0.0623,0.0492,0.0451,0.0247,0.0138,0.0089,-0.0038,-0.0088,-0.0101,-0.0146,-0.0145,0.0009,-0.0039,0.0052,0.0078,-0.0212,-0.0212,-0.0212,0.0083,0,0.0495,0.053,0.0549,0.0592,0.0605,0.0621,0.061,0.0573,0.0508,0.0465,0.0344,0.0216,0.0108,0.0014,-0.0046,-0.0133,-0.0079,-0.0145,-0.0094,-0.0151,-0.001,0.0004,-0.0136,-0.0135,-0.0133,-0.0132,0,0,0.0468,0.05,0.0507,0.0538,0.0563,0.0542,0.0564,0.054,0.0478,0.0452,0.0391,0.0212,0.013,0.005,-0.0023,-0.0064,-0.0023,-0.0061,-0.014,-0.0141,-0.0142,-0.0011,0.0001,-0.013,-0.013,-0.0129,-0.0129,0,0.0463,0.0481,0.0504,0.0515,0.0538,0.0538,0.0532,0.05,0.0472,0.041,0.0357,0.025,0.0146,0.009,0.0051,-0.0041,-0.0008,-0.0112,-0.0112,-0.013,-0.0133,-0.0135,-0.0008,0.0002,-0.0126,-0.0126,-0.0126,0,0.0448,0.0474,0.048,0.0501,0.0511,0.0527,0.0499,0.0498,0.0492,0.0441,0.0391,0.0303,0.0248,0.0156,0.0113,0.0132,0.0045,0.0011,0.0004,0.0065,0.0053,0.0048,0.0044,0.0109,0.011,0.011,0,0,0.0451,0.047,0.0482,0.05,0.0511,0.0502,0.0503,0.0489,0.0465,0.0448,0.0394,0.0336,0.0273,0.0236,0.0188,0.0112,0.0179,0.0039,0.0028,0.0019,0.0074,0.006,0.0054,0.0113,0.0113,0.0113,0,0,0.0443,0.0468,0.0476,0.0496,0.05,0.0497,0.0509,0.0485,0.0448,0.0442,0.0403,0.0391,0.0307,0.0293,0.0335,0.0164,0.0211,0.0202,0.0166,0.0153,0.0142,0.0221,0.0321,0,0,0,0,0,0.0456,0.0469,0.0477,0.0484,0.0498,0.0499,0.0498,0.0495,0.0478,0.0468,0.0432,0.0414,0.03,0.0338,0.0326,0.0238,0.0149,0.0142,0.0137,0.0073,0.0059,0.0047,0,0,0,0,0,0,0.0459,0.0465,0.0477,0.0479,0.0484,0.0498,0.0492,0.0489,0.0479,0.0476,0.0422,0.0413,0.0394,0.0342,0.0332,0.0247,0.0325,0.0146,0.0141,0.0136,0.0068,0.0056,0.0046,0,0,0,0,0,0.0461,0.0466,0.0493,0.0478,0.0482,0.0486,0.049,0.0488,0.0463,0.0446,0.0436,0.0462,0.0396,0.0383,0.0336,0.0251,0.0332,0.0328,0.0143,0.0139,0.0135,0.0063,0,0,0,0,0,0,0.0463,0.0444,0.0493,0.0494,0.0478,0.0484,0.0484,0.0488,0.043,0.0425,0.0486,0.0484,0.0396,0.0387,0.0378,0.0252,0.0338,0.0334,0.0331,0.014,0.0136,0.0133,0,0,0,0,0,0,0.0443,0.0445,0.0493,0.0493,0.0494,0.0482,0.0482,0.0444,0.0427,0.0469,0.0469,0.0485,0.04,0.0389,0.0382,0.0322,0.0342,0.0338,0.0336,0.0334,0.0137,0.0134,0,0,0,0,0,0,0.0444,0.0445,0.0492,0.0493,0.0493,0.0497,0.0444,0.0446,0.0471,0.0469,0.0471,0.0471,0.0402,0.0395,0.0385,0.0329,0.0324,0.0342,0.0339,0.0338,0.0336,0,0,0,0,0,0,0,0.0444,0.0434,0.0499,0.0492,0.0492,0.0508,0.0507,0.0506,0.0471,0.0471,0.0471,0.0471,0.0363,0.0359,0.0355,0.0334,0,0,0.0342,0.0341,0,0,0,0,0,0,0,0,0.0433,0.0433,0.05,0.0501,0.0502,0.0508,0.0507,0.0506,0.0471,0.0471,0.0471,0.0471,0.0362,0.0359,0.0356,0,0,0,0,0,0,0,0,0,0,0,0,0,0,0,0.05,0.05,0,0.0508,0.0507,0.0506,0.0471,0.0471,0.0471,0.0471,0.0361,0.0359,0.0356,0,0,0,0,0,0,0,0,0,0,0,0,0,0,0,0,0,0,0,0,0,0,0,0,0,0,0,0,0,0,0,0,0,0,0,0,0,0,0,0,0,0,0,0,0,0,0,0,0,0,0,0,0,0,0,0,0,0,0,0,0,0,0,0,0,0,0,0,0]}],[{"header":{"parameterUnit":"kt","parameterCategory":2,"dx":1,"dy":1,"la1":30.253999710083008,"la2":30.299108505249023,"lo1":-89.0895004272461,"lo2":-89.04439544677734,"nx":28,"ny":28,"refTime":"2022-09-25T21:00:00:Z","depth":"4","parameterNumber":3,"parameterNumberName":"V-component_of_CURRENTS"},"data":[-0.0038,-0.0004,0.0035,0.0087,0.0107,0.0121,0.0123,0.0099,0.0108,0.0065,-0.002,-0.0098,-0.0266,-0.0199,-0.044,-0.0481,-0.0613,-0.0755,-0.0757,-0.0992,-0.1002,-0.1011,-0.1022,0,0,0,0,0,-0.0029,-0.0006,0.0028,0.0034,0.0065,0.0054,0.0051,0.002,-0.0016,0.0024,-0.0054,-0.0096,-0.0265,-0.0357,-0.0448,-0.0546,-0.0773,-0.0657,-0.0853,-0.0998,-0.1009,-0.1016,0,0,0,0,0,0,-0.0031,-0.0015,-0.0013,-0.0007,-0.0003,0.0009,-0.003,-0.0038,-0.0068,-0.0139,-0.01,-0.0237,-0.0332,-0.0496,-0.0542,-0.0644,-0.0742,-0.08,-0.0821,-0.0834,-0.0807,-0.0749,-0.057,0,0,0,0,0,-0.0047,-0.006,-0.0067,-0.0057,-0.0093,-0.0106,-0.0162,-0.0152,-0.0244,-0.0311,-0.0303,-0.04,-0.0445,-0.0604,-0.0668,-0.0762,-0.0993,-0.0955,-0.0965,-0.1115,-0.1095,-0.1104,-0.1113,-0.1051,-0.1052,-0.1053,-0.1054,0,-0.0084,-0.008,-0.0123,-0.0128,-0.0188,-0.025,-0.0282,-0.0413,-0.0434,-0.0504,-0.0478,-0.0553,-0.0638,-0.0671,-0.0832,-0.0949,-0.0975,-0.0981,-0.114,-0.1113,-0.1118,-0.1125,-0.1131,-0.1063,-0.1062,-0.1061,-0.106,0,-0.0102,-0.0142,-0.0157,-0.0243,-0.0275,-0.0313,-0.0437,-0.0473,-0.0595,-0.0628,-0.0653,-0.0791,-0.0831,-0.0946,-0.1022,-0.1081,-0.1112,-0.1094,-0.1143,-0.1147,-0.1146,-0.1148,-0.1077,-0.1074,-0.1071,-0.1069,-0.1067,0,-0.0162,-0.0182,-0.0249,-0.0273,-0.0305,-0.0421,-0.0498,-0.0591,-0.071,-0.0742,-0.0922,-0.0929,-0.1101,-0.1112,-0.1183,-0.118,-0.1204,-0.1244,-0.1241,-0.135,-0.1352,-0.1337,-0.1337,-0.1336,-0.1336,-0.1337,-0.1337,0,-0.0198,-0.026,-0.0283,-0.0323,-0.0417,-0.048,-0.0548,-0.07,-0.0759,-0.0915,-0.0956,-0.109,-0.1122,-0.1186,-0.1227,-0.1279,-0.1249,-0.1328,-0.1269,-0.1263,-0.134,-0.1339,-0.1338,-0.1338,-0.1338,-0.1338,-0.1338,0,-0.0278,-0.0296,-0.0332,-0.0417,-0.0444,-0.0497,-0.0623,-0.0692,-0.0842,-0.0941,-0.1062,-0.1159,-0.1222,-0.1262,-0.1317,-0.1326,-0.1343,-0.1367,-0.1366,-0.1279,-0.1287,-0.1328,-0.1346,-0.1346,-0.1346,-0.1347,-0.1347,0,-0.0304,-0.0329,-0.0399,-0.0451,-0.0474,-0.0593,-0.065,-0.0761,-0.0882,-0.0981,-0.1099,-0.1204,-0.1267,-0.1313,-0.1337,-0.139,-0.1381,-0.1398,-0.1371,-0.1369,-0.1288,-0.1286,-0.1411,-0.1352,-0.1352,-0.1351,-0.1351,0,-0.0321,-0.0406,-0.0422,-0.045,-0.0571,-0.0606,-0.0695,-0.0785,-0.0852,-0.0993,-0.1077,-0.1216,-0.1285,-0.132,-0.1377,-0.138,-0.1386,-0.1388,-0.1388,-0.1351,-0.1377,-0.1301,-0.129,-0.1411,-0.1411,-0.1411,-0.1355,0,-0.0341,-0.0396,-0.0426,-0.0488,-0.055,-0.0612,-0.0704,-0.0777,-0.0887,-0.0963,-0.1116,-0.1224,-0.1315,-0.1343,-0.1386,-0.1411,-0.1399,-0.1417,-0.137,-0.1392,-0.1365,-0.1362,-0.1387,-0.1387,-0.1386,-0.1386,0,0,-0.0338,-0.038,-0.0457,-0.0488,-0.0552,-0.0648,-0.0683,-0.0742,-0.0895,-0.0964,-0.1026,-0.1212,-0.1283,-0.1353,-0.138,-0.1414,-0.1403,-0.1357,-0.1389,-0.1389,-0.1389,-0.1364,-0.1362,-0.1385,-0.1385,-0.1385,-0.1385,0,-0.0322,-0.0411,-0.0439,-0.049,-0.0597,-0.063,-0.067,-0.0769,-0.0846,-0.0966,-0.1062,-0.1175,-0.1276,-0.132,-0.1349,-0.1409,-0.1371,-0.1412,-0.1378,-0.1386,-0.1387,-0.1387,-0.1363,-0.1361,-0.1384,-0.1384,-0.1384,0,-0.031,-0.0373,-0.0415,-0.0499,-0.056,-0.0592,-0.066,-0.0753,-0.0803,-0.0904,-0.1037,-0.1128,-0.1191,-0.127,-0.1318,-0.1289,-0.1325,-0.1331,-0.1334,-0.1311,-0.1317,-0.1319,-0.132,-0.1297,-0.1296,-0.1296,0,0,-0.0295,-0.0353,-0.0435,-0.0503,-0.0537,-0.062,-0.0669,-0.0734,-0.084,-0.0895,-0.099,-0.1084,-0.1162,-0.121,-0.128,-0.1326,-0.1308,-0.132,-0.1324,-0.1328,-0.1308,-0.1314,-0.1316,-0.1295,-0.1295,-0.1295,0,0,-0.0293,-0.0395,-0.044,-0.0513,-0.0577,-0.0644,-0.0699,-0.0754,-0.0866,-0.0924,-0.1001,-0.1034,-0.1167,-0.1174,-0.1157,-0.1229,-0.1211,-0.1217,-0.1219,-0.1225,-0.1229,-0.1192,-0.1135,0,0,0,0,0,-0.0336,-0.0373,-0.0412,-0.044,-0.0554,-0.061,-0.0623,-0.0726,-0.0792,-0.0814,-0.0954,-0.095,-0.118,-0.1167,-0.1181,-0.1176,-0.1279,-0.1282,-0.1284,-0.1301,-0.1307,-0.1311,0,0,0,0,0,0,-0.0347,-0.0373,-0.0413,-0.048,-0.051,-0.0608,-0.0669,-0.0693,-0.0793,-0.081,-0.0925,-0.0949,-0.0987,-0.1159,-0.1172,-0.1167,-0.1131,-0.128,-0.1282,-0.1284,-0.1303,-0.1307,-0.1311,0,0,0,0,0,-0.0356,-0.0378,-0.0549,-0.048,-0.0505,-0.0643,-0.0672,-0.0693,-0.0769,-0.086,-0.0888,-0.0864,-0.0981,-0.1004,-0.1167,-0.116,-0.1122,-0.1127,-0.1281,-0.1283,-0.1285,-0.1305,0,0,0,0,0,0,-0.0363,-0.0355,-0.0555,-0.0566,-0.0525,-0.0641,-0.0664,-0.0692,-0.0816,-0.0844,-0.0796,-0.0807,-0.0976,-0.0995,-0.1011,-0.1156,-0.1115,-0.112,-0.1123,-0.1283,-0.1284,-0.1286,0,0,0,0,0,0,-0.0347,-0.0363,-0.0559,-0.061,-0.0627,-0.0639,-0.066,-0.0696,-0.0817,-0.074,-0.0756,-0.0801,-0.0996,-0.0988,-0.1002,-0.1048,-0.1109,-0.1114,-0.1117,-0.1119,-0.1284,-0.1285,0,0,0,0,0,0,-0.0355,-0.0369,-0.0607,-0.0619,-0.0634,-0.0749,-0.0673,-0.0802,-0.0819,-0.0732,-0.0832,-0.0838,-0.0989,-0.1003,-0.0994,-0.1033,-0.1044,-0.1109,-0.1113,-0.1115,-0.1116,0,0,0,0,0,0,0,-0.0361,-0.0249,-0.0514,-0.0627,-0.064,-0.0674,-0.0674,-0.0675,-0.082,-0.0825,-0.083,-0.0835,-0.1083,-0.1088,-0.1093,-0.1021,0,0,-0.1109,-0.1111,0,0,0,0,0,0,0,0,-0.0245,-0.0248,-0.0515,-0.0519,-0.0522,-0.0674,-0.0674,-0.0675,-0.0821,-0.0825,-0.0829,-0.0833,-0.1084,-0.1088,-0.1092,0,0,0,0,0,0,0,0,0,0,0,0,0,0,0,-0.0515,-0.0518,0,-0.0674,-0.0674,-0.0674,-0.0822,-0.0825,-0.0828,-0.0832,-0.1085,-0.1089,-0.1092,0,0,0,0,0,0,0,0,0,0,0,0,0,0,0,0,0,0,0,0,0,0,0,0,0,0,0,0,0,0,0,0,0,0,0,0,0,0,0,0,0,0,0,0,0,0,0,0,0,0,0,0,0,0,0,0,0,0,0,0,0,0,0,0,0,0,0,0,0]}]]]